Regional Weather Roundup
Issued by NWS Wakefield, VA

Home | Current Version | Previous Version | Text Only | Print | Product List | Glossary Off
Versions: 1 2 3 4 5 6 7 8 9 10 11 12 13 14 15 16 17 18 19 20 21 22 23 24 25 26 27

000
ASUS41 KAKQ 261315
RWRAKQ

REGIONAL WEATHER ROUNDUP
NATIONAL WEATHER SERVICE WAKEFIELD VA
900 AM EDT SUN MAR 26 2017

Note: "fair" indicates few or no clouds below 12,000 feet with no
significant weather and/or obstructions to visibility. * = Denotes
station may not report precipitation (e.g., rain,snow,etc.),
thunder or fog.

VAZ042-051-052>054-056-261400-
NORTHERN VIRGINIA

CITY           SKY/WX    TMP DP  RH WIND       PRES   REMARKS
WASH NATIONAL  CLOUDY    48  44  86 E13       30.33R
DULLES         CLOUDY    47  42  83 E8        30.32R
FORT BELVOIR   CLOUDY    47  43  85 VRB7      30.32R
QUANTICO       CLOUDY    49  47  93 E8        30.33R
FREDERICKSBRG* CLOUDY    49  46  87 NE5       30.30R
STAFFORD*      CLOUDY    48  46  92 NE12      30.35R
WARRENTON      CLOUDY    50  42  74 E7        30.30R
CULPEPER*      CLOUDY    50  45  81 NE6       30.31R
MANASSAS*      CLOUDY    48  44  86 E12       30.32R
LEESBURG*      CLOUDY    46  45  93 E12       30.33R
WINCHESTER     CLOUDY    45  41  87 E9        30.29R
FRONT ROYAL*   CLOUDY    46  43  87 E14G22    30.26S
LURAY*         PTSUNNY   52  46  82 N6        30.24R
$$

VAZ048-049-060>072-079>083-261400-
CENTRAL AND SOUTH CENTRAL VIRGINIA

CITY           SKY/WX    TMP DP  RH WIND       PRES   REMARKS
RICHMOND       PTSUNNY   58  53  84 E6        30.26R
CHESTERFIELD*  CLOUDY   N/A N/A N/A E6        30.27R
PETERSBURG*    PTSUNNY   57  52  84 S3        30.26R
HANOVER        MOSUNNY   53  46  77 VRB3      30.29R
TAPPAHANNOCK*  CLOUDY    50  48  91 E8        30.30R FOG
QUINTON*       FAIR      55  52  90 E7        30.27R
CHARLOTTSVILLE PTSUNNY   52  45  77 NE10      30.27R
GORDONSVILLE*  CLOUDY    50  45  83 NE7       30.28R
ORANGE*        CLOUDY    48  43  81 N8        30.30R
LOUISA*        PTSUNNY   55  48  76 NE6       30.26R
BUMPASS*       CLOUDY    50  47  89 NE5       30.28R
FARMVILLE*     CLOUDY    58  54  88 CALM      30.23R
CREWE*         CLOUDY    58  57  96 CALM      30.25R
FORT PICKETT*  PTSUNNY   57  53  85 S10       30.25R
CHASE CITY*    PTSUNNY   56  55  94 SE3       30.25R
CLARKSVILLE*   CLOUDY    55  54  94 SE5       30.24R
SOUTH HILL*    CLOUDY    56  54  91 S6        30.30S
LAWRENCEVILLE* CLOUDY    57  53  86 S5        30.25R
EMPORIA*       CLOUDY    55  54  94 SE3       30.28R
$$

VAZ088>098-261400-
SOUTHEAST VIRGINIA

CITY           SKY/WX    TMP DP  RH WIND       PRES   REMARKS
NORFOLK        CLOUDY    55  49  80 N7        30.27R
VIRGINIA BEACH CLOUDY    62  54  74 SW3       30.27R
NORFOLK NAVAL  CLOUDY    59  51  75 NE7       30.29R
WEST POINT*    PTSUNNY   54  49  85 E8        30.30R
SALUDA*        PTSUNNY   50  49  94 E5        30.29R
NEWPORT NEWS   CLOUDY    60  55  83 E7        30.28R
LANGLEY AFB    CLOUDY    58  55  88 E8        30.28R
FORT EUSTIS    MOSUNNY   60  54  81 CALM      30.25R
WILLIAMSBURG*  MOSUNNY   61  57  88 CALM      30.28R
HR EXEC AP*    FAIR      61  54  77 SW3       30.26R
FRANKLIN*      CLOUDY    59  55  85 S6        30.27S
US460-WAKEFLD  PTSUNNY   60  55  83 S5        30.27R
$$

VAZ020-022-025-037-045-261400-
WEST CENTRAL AND SOUTHWEST VIRGINIA

CITY           SKY/WX    TMP DP  RH WIND       PRES   REMARKS
STAUNTON*      MOSUNNY   53  48  84 N6        30.24R
WAYNESBORO*    CLOUDY    55  50  83 SE9       30.22R
HOT SPRINGS VA CLOUDY    50  46  87 CALM      30.24R
LYNCHBURG      CLOUDY    56  51  84 CALM      30.24R
DANVILLE       CLOUDY    55  53  93 CALM      30.24R
SOUTH BOSTON*  PTSUNNY   56  55  95 CALM      30.25R
MARTINSVILLE   PTSUNNY   55  51  87 CALM      30.25R
ROANOKE        CLOUDY    57  51  80 E3        30.23R
BLACKSBURG     CLOUDY    57  51  81 S6        30.25R
DUBLIN*        CLOUDY    56  52  84 SE5       30.22R
MARION*        CLOUDY    58  50  73 NE5       30.20R
HILLSVILLE*    CLOUDY    53  51  93 CALM      30.20R
RICHLANDS*     CLOUDY    58  47  67 CALM      30.13R
WISE*          LGT RAIN  54  54 100 CALM      30.14R
ABINGDON*      CLOUDY    62  50  64 S9        30.13R
$$

MDZ021>025-VAZ099-100-261400-
SOUTHERN MARYLAND AND THE DELMARVA PENINSULA

CITY           SKY/WX    TMP DP  RH WIND       PRES   REMARKS
PATUXENT RIVER CLOUDY    47  47 100 E13       30.32R FOG
BAY BRIDGE APT CLOUDY    46  43  87 E8        30.34S FOG
LEONARDTOWN    CLOUDY    46  43  87 E6        30.33R
DOVER          CLOUDY    45  45 100 E16       30.35S
GEORGETOWN     CLOUDY    44  42  93 E13       30.36R FOG
EASTON         CLOUDY    46  43  87 E12G18    30.38R FOG
CAMBRIDGE      CLOUDY    45  43  93 E12       30.33S FOG
SALISBURY      CLOUDY    46  46 100 NE14      30.33R FOG
OCEAN CITY     CLOUDY    45  43  93 NE14      30.34R FOG
WALLOPS ISLAND FOG       47  47 100 NE16      30.32R VSB 1
ACCOMACK*      CLOUDY    51  49  94 NE10      30.30R FOG
$$

NCZ012>017-030>032-261400-
NORTH CENTRAL AND EASTERN NORTH CAROLINA

CITY           SKY/WX    TMP DP  RH WIND       PRES   REMARKS
ROANOKE RAPIDS CLOUDY    59  55  88 CALM      30.26R
RALEIGH        CLOUDY    58  53  84 S3        30.25R
ELIZABETH CITY CLOUDY    59  57  93 CALM      30.28R
AHOSKIE*         N/A     56  55  93 S3        30.27S
EDENTON*       CLOUDY    63  58  82 CALM      30.28S
CURRITUCK*     CLOUDY    59  59  98 CALM      30.28S
KILL DEVIL HLS NOT AVBL
MANTEO         CLOUDY    61  56  82 CALM      30.29S
CAPE HATTERAS  CLOUDY    70  55  59 CALM      30.29R
TARBORO*       NOT AVBL
GOLDSBORO      PTSUNNY   59  59 100 SE3       30.24R
WASHINGTON     CLOUDY    59  56  90 CALM      30.27S
GREENVILLE     CLOUDY    61  55  82 CALM      30.27S
NEW BERN       CLOUDY    61  59  93 CALM      30.27S
WILMINGTON     CLOUDY    65  56  72 SE3       30.25R
$$

VAZ048-261400-
ELSEWHERE

CITY           SKY/WX    TMP DP  RH WIND       PRES   REMARKS
HARRISBURG PA  CLOUDY    45  39  79 E13       30.34R
BALTIMORE      CLOUDY    46  41  82 E13       30.34R
ANNAPOLIS      CLOUDY    47  43  86 E12       30.34R
ANDREWS AFB    CLOUDY    46  43  90 E13       30.31R
PHILADELPHIA   CLOUDY    43  36  76 E17       30.40R
HENDERSON NC   CLOUDY    54  50  87 S5        30.26R
GREENSBORO     PTSUNNY   57  55  93 S7        30.22R
ROCKY MOUNT    CLOUDY    56  56 100 S3        30.26R
$$

VAZ100-261400-
MARINE

STATION/POSITION TIME  TEMP    WIND        PRES    WAVE   SWELL
                       AIR SEA DIR/SP/G            HT/PER HT/PER
                 (UTC) (F)     (DEG/KT/KT) (MB)    (FT/S) (FT/S)
CAPE MAY NJ      1248   43 45   70/ 11/ 18 1027.4R
LEWES DE         1248      46   90/ 15/ 20 1027.9R
OCEAN-CITY-INLET 1248   44 43   70/  6/ 11 1027.5R
WACHAPREAGUE VA  1248   48 51   50/ 16/ 20 1025.9R
THOMAS POINT MD  1200   45 45   80/ 14/ 15   N/A
GOOSES REEF MD   1300   45 45  110/ 12/ 14 1027.7    2/ 3
COVE POINT MD    1248   45     110/ 10/ 12 1027.5R
SOLOMONS ISLAND  1248   46 47   90/ 11/ 14   N/A
BISHOPS HEAD MD  1248   46 50   70/ 12/ 15 1026.8R
PINEY POINT MD   1248          100/ 14/ 16   N/A
POTOMAC MD       1300   47 46   90/ 10/ 12 1025.5    1/ 2
CAMBRIDGE MD     1248   45 48   70/ 13/ 16 1026.6R
LEWISETTA VA     1248   47 50  100/ 11/ 13 1026.1R
RAPPAHANNOCK LGT 1248           80/ 11/ 12 1026.2R
STINGRAY PT      1250   48      60/  4/  6 1025.6R
YORK RVR RNG VA  1248   49     110/ 10/ 11 1024.7R
YORKTOWN VA      1248   52 50   90/  5/  5 1025.0R
JAMESTOWN VA     1300   59 53   70/  4/  6   N/A     0
DOMINION TERM VA 1248   57     160/  2/  2 1025.1R
KIPTOPEKE VA     1248      48   70/ 11/ 13   N/A
CHES BAY BRIDGE  1248   48 47   80/ 13/ 14 1025.4R
CAPE HENRY VA    1248   49      70/  4/  5   N/A
WILLOUBY STN VA  1248   51      70/  9/ 10 1026.3R
S CRANEY ISL VA  1248   57     170/  3/  3 1024.9R
CAPE HENRY BUOY  1242      49                N/A     2/ 6
CAPE CHARLES BUO 1251      47                N/A     2/ 6
OFFSHORE WE BUOY 1251      49                N/A     2/ 5
64NM E OF VA BCH 1250   55 49  270/  4/  4 1025.4R   2/ 5   2/ 5
DUCK PIER NC     1248   53 46  130/  6/  7 1025.0R
44100 DUCK FRF   1235      50                N/A     2/ 6
44056 DUCK FRF   1230      49                N/A     2/11
OREGON INLET NC  1242   63 58  150/  3/  5 1025.5R
HATTERAS NC      1248   65 58   60/  1/  2 1025.3R
DIAMOND SHLS NC  1250   69 75  180/ 10/ 12 1025.8R   3/ 8   2/ 8
CAPE LOOKOUT NC  1200   66      30/  3/  3 1024.6R
$$




USA.gov is the U.S. government's official web portal to all federal, state and local government web resources and services.